Location: Haliburton Scout Reserve
(45.0900°N, 78.3200°W)
Time: 16:05:48
(UTC-05:00)

Cosmos 1315 - Visible Passes

Search period start: 31 January 2015 00:00
Search period end: 10 February 2015 00:00
Orbit: 380 x 383 km, 81.1° (Epoch: 30 January)

Date Brightness Start Highest point End Pass type
(mag) Time Alt. Az. Time Alt. Az. Time Alt. Az.
31 Jan 6.3 06:13:52 10° ESE 06:14:50 11° E 06:15:55 10° ENE visible
31 Jan 6.1 18:54:06 10° NW 18:56:00 15° W 18:57:47 10° SW visible
01 Feb 3.9 06:47:54 10° S 06:50:48 45° E 06:53:46 10° NNE visible
01 Feb 2.9 17:56:17 10° NNW 17:59:20 73° W 18:02:22 10° S visible
02 Feb 6.5 05:53:44 10° E 05:54:11 10° E 05:54:46 10° ENE visible
02 Feb 6.0 18:33:14 10° NW 18:35:16 16° W 18:37:13 10° SW visible
03 Feb 4.1 06:27:08 10° SSE 06:30:01 40° E 06:32:55 10° NNE visible
04 Feb 5.9 18:12:05 10° NW 18:14:16 18° W 18:16:23 10° SW visible
05 Feb 4.3 06:06:07 10° SSE 06:08:56 36° E 06:11:47 10° NNE visible
06 Feb 2.9 06:41:50 10° SSW 06:44:46 43° WNW 06:47:41 10° N visible
07 Feb 4.5 05:44:50 10° SSE 05:47:35 32° E 05:50:22 10° NNE visible
08 Feb 2.7 06:20:17 10° SSW 06:23:14 49° WNW 06:26:13 10° N visible
09 Feb 4.7 05:23:19 10° SSE 05:25:57 28° E 05:28:39 10° NNE visible
